Location: *
(17.3280°S, 114.7300°W)
Time: 01:08:47
(UTC+00:00)

Cosmos 1400 Rocket - Visible Passes

Search period start: 07 December 2021 00:00
Search period end: 17 December 2021 00:00
Orbit: 521 x 566 km, 81.2° (Epoch: 06 December)

Date Brightness Start Highest point End Pass type
(mag) Time Alt. Az. Time Alt. Az. Time Alt. Az.
07 Dec 4.1 03:12:06 22° E 03:12:06 22° E 03:14:51 10° SE visible
07 Dec 5.7 04:47:35 13° W 04:47:59 13° W 04:49:47 10° SW visible
08 Dec 3.9 03:04:31 22° ENE 03:05:19 24° E 03:08:32 10° SE visible
08 Dec 5.8 04:40:06 10° WNW 04:41:36 12° W 04:43:05 10° WSW visible
09 Dec 3.9 02:56:43 16° NE 02:58:55 25° E 03:02:13 10° SE visible
09 Dec 5.9 04:34:09 10° W 04:35:13 11° W 04:36:17 10° WSW visible
10 Dec 3.8 02:49:08 10° NNE 02:52:31 27° E 02:55:54 10° SE visible
10 Dec 6.1 04:28:38 10° W 04:28:49 10° W 04:29:02 10° WSW visible
11 Dec 3.7 02:42:39 10° NNE 02:46:06 29° E 02:49:33 10° SSE visible
12 Dec 3.6 02:36:11 10° NNE 02:39:43 31° E 02:43:13 10° SSE visible
13 Dec 3.5 02:29:43 10° NNE 02:33:18 33° E 02:36:53 10° SSE visible
